Weather History for KCDW - June, 2013

Change the Weather History Date:

Wednesday, June 26, 2013

  Actual Average Record
Temperature  
Mean Temperature 78 °F -  
Max Temperature 86 °F 83 °F 97 °F (1952)
Min Temperature 72 °F 58 °F 45 °F (1986)
Cooling Degree Days 13    
Growing Degree Days 28 (Base 50)    
Moisture  
Dew Point 67 °F    
Average Humidity 68    
Maximum Humidity 93    
Minimum Humidity 51    
Precipitation  
Precipitation 0.00 in - - ()
Sea Level Pressure  
Sea Level Pressure 29.84 in    
Wind  
Wind Speed 3 mph (West)    
Max Wind Speed 7 mph    
Max Gust Speed -    
Visibility 10 miles    
Events      
Averages and records for this station are not official NWS values.
T = Trace of Precipitation, MM = Missing Value Source: NWS Daily Summary

Daily Weather History Graph

Daily Weather History Graph

Search for Another Location

Airport or City:

Trip Planner

Search our weather history database for the weather conditions in past years. The results will help you decide how hot, cold, wet, or windy it might be!

Date:

Astronomy

Jun. 26, 2013 Rise Set
Actual Time 5:27 AM EDT 8:32 PM EDT
Civil Twilight 4:53 AM EDT 9:06 PM EDT
Nautical Twilight 4:10 AM EDT 9:49 PM EDT
Astronomical Twilight 3:20 AM EDT 10:39 PM EDT
Moon 10:52 PM EDT (6/26) 9:17 AM EDT (6/26)
Length of Visible Light 16h 12m
Length of Day
15h 05m
Waning Gibbous, 85% of the Moon is Illuminated
Jun 26
Waning Gibbous
Jun 30
Last Quarter
Jul 8
New
Jul 15
First Quarter
Jul 22
Full

Hourly Weather History & Observations

Time (EDT) Temp. Heat Index Dew Point Humidity Pressure Visibility Wind Dir Wind Speed Gust Speed Precip Events Conditions
12:53 AM 73.9 °F - 71.1 °F 91% 29.81 in 10.0 mi Calm Calm - 0.00 in   Clear
1:53 AM 73.0 °F - 71.1 °F 93% 29.81 in 8.0 mi Calm Calm - 0.00 in   Partly Cloudy
2:53 AM 75.0 °F - 68.0 °F 79% 29.81 in 10.0 mi West 6.9 mph - N/A   Clear
3:53 AM 75.0 °F - 66.0 °F 73% 29.82 in 10.0 mi NW 5.8 mph - N/A   Clear
4:53 AM 73.9 °F - 64.9 °F 73% 29.83 in 10.0 mi Variable 3.5 mph - N/A   Clear
5:53 AM 72.0 °F - 64.9 °F 78% 29.86 in 10.0 mi West 4.6 mph - N/A   Clear
6:53 AM 73.9 °F - 64.9 °F 73% 29.86 in 10.0 mi Variable 4.6 mph - N/A   Clear
7:53 AM 75.0 °F - 64.9 °F 71% 29.86 in 10.0 mi WNW 3.5 mph - N/A   Clear
8:53 AM 79.0 °F - 64.9 °F 62% 29.86 in 10.0 mi Variable 3.5 mph - N/A   Clear
9:53 AM 80.1 °F 81.7 °F 64.0 °F 58% 29.86 in 10.0 mi Variable 5.8 mph - N/A   Partly Cloudy
10:53 AM 81.0 °F 82.7 °F 64.9 °F 58% 29.85 in 10.0 mi West 4.6 mph - N/A   Clear
11:53 AM 79.0 °F - 66.0 °F 64% 29.86 in 10.0 mi Variable 4.6 mph - N/A   Clear
12:53 PM 81.0 °F 82.5 °F 64.0 °F 56% 29.87 in 10.0 mi Variable 4.6 mph - N/A   Partly Cloudy
1:53 PM 81.0 °F 83.3 °F 66.9 °F 62% 29.86 in 10.0 mi WSW 4.6 mph - N/A   Clear
2:53 PM 82.0 °F 84.9 °F 68.0 °F 62% 29.85 in 10.0 mi SSW 6.9 mph - N/A   Clear
3:53 PM 84.0 °F 87.0 °F 68.0 °F 58% 29.83 in 10.0 mi Variable 4.6 mph - N/A   Clear
4:53 PM 84.0 °F 86.5 °F 66.9 °F 56% 29.81 in 10.0 mi Variable 4.6 mph - N/A   Clear
5:53 PM 84.9 °F 87.1 °F 66.0 °F 53% 29.81 in 10.0 mi West 5.8 mph - N/A   Clear
6:53 PM 84.9 °F 86.6 °F 64.9 °F 51% 29.81 in 10.0 mi WNW 4.6 mph - N/A   Partly Cloudy
7:53 PM 82.9 °F 85.4 °F 66.9 °F 58% 29.82 in 10.0 mi Calm Calm - N/A   Clear
8:53 PM 80.1 °F 82.7 °F 68.0 °F 67% 29.82 in 10.0 mi NNW 3.5 mph - N/A   Mostly Cloudy
9:53 PM 78.1 °F - 68.0 °F 71% 29.83 in 10.0 mi Calm Calm - N/A   Partly Cloudy
10:53 PM 75.0 °F - 68.0 °F 79% 29.84 in 10.0 mi Calm Calm - N/A   Clear
11:53 PM 75.9 °F - 68.0 °F 76% 29.85 in 10.0 mi Calm Calm - N/A   Overcast